Date,TemperatureHighF,TemperatureAvgF,TemperatureLowF,DewpointHighF,DewpointAvgF,DewpointLowF,HumidityHigh,HumidityAvg,HumidityLow,PressureMaxIn,PressureMinIn,WindSpeedMaxMPH,WindSpeedAvgMPH,GustSpeedMaxMPH,PrecipitationSumIn
2013-1-1,65,48,38,46,38,30,83,68,38,30.18,29.97,3,0,5,0.00
2013-1-2,58,52,47,51,44,42,90,76,60,30.30,30.06,7,1,8,0.00
2013-1-3,70,53,46,44,40,37,77,64,36,30.54,30.30,1,0,2,0.00
2013-1-4,69,50,41,46,39,36,84,66,39,30.51,30.30,1,0,2,0.00
2013-1-5,64,49,40,46,39,34,85,69,45,30.36,30.09,1,0,2,0.00
2013-1-6,69,51,43,46,41,37,84,71,41,30.24,30.06,3,0,3,0.00
2013-1-7,72,53,45,47,42,38,86,69,36,30.27,30.06,2,0,2,0.00
2013-1-8,56,48,42,44,40,36,86,74,54,30.33,30.21,3,0,3,0.00
2013-1-9,55,51,46,48,43,41,85,75,61,30.24,30.12,1,0,2,0.00
2013-1-10,53,51,48,49,44,39,92,77,61,30.12,29.83,5,1,7,0.00
2013-1-11,59,49,42,51,43,39,96,81,58,29.86,29.68,3,0,5,0.00
2013-1-12,66,49,39,47,40,35,93,73,44,30.04,29.86,4,1,5,0.00
2013-1-13,54,50,49,48,45,41,89,83,74,30.04,29.83,7,2,8,0.00
2013-1-23,48,48,47,43,43,42,84,83,82,29.71,29.71,3,2,5,73.66
2013-1-24,48,47,45,36,36,34,66,65,63,29.47,29.47,2,0,4,0.00
2013-1-25,62,48,41,42,33,27,77,57,36,29.65,29.42,3,1,4,0.00
2013-1-26,62,46,39,33,26,23,59,47,33,29.86,29.62,2,0,3,0.00
2013-1-27,65,45,37,37,28,22,69,52,34,30.01,29.86,3,0,4,0.00
2013-1-28,49,46,40,44,40,31,89,78,66,30.06,29.83,6,0,6,0.00
2013-1-29,69,50,41,45,40,35,87,69,34,30.24,30.06,2,0,3,0.00
2013-1-30,68,52,42,49,42,37,86,70,37,30.27,30.15,4,0,6,0.00
2013-1-31,76,57,48,52,47,43,92,72,36,30.21,30.12,4,0,4,0.00
2013-2-1,67,55,48,52,49,44,90,79,52,30.15,29.74,6,2,9,0.00
2013-2-2,62,56,52,53,47,33,93,75,47,29.74,29.24,8,4,11,0.00
2013-2-3,61,50,44,43,34,22,73,54,39,29.98,29.33,7,1,7,0.00
2013-2-4,69,50,39,33,26,20,58,40,23,30.15,29.95,2,0,3,0.00
2013-2-5,55,52,41,49,45,32,92,79,38,30.06,29.77,9,3,10,0.00
2013-2-6,63,51,43,48,38,28,93,65,36,29.80,29.47,7,2,8,0.00
2013-2-7,58,46,41,45,37,31,86,71,47,29.56,29.44,4,0,5,0.00
2013-2-8,63,47,41,32,27,21,68,46,31,29.74,29.56,3,1,6,0.00
2013-2-9,60,45,39,28,24,21,57,44,27,29.83,29.71,2,0,4,0.00
2013-2-10,55,48,40,27,25,23,51,40,33,29.92,29.89,1,0,3,73.66
2013-2-11,48,47,47,45,44,44,93,91,86,29.56,29.53,8,3,11,0.00
2013-2-12,65,49,43,48,41,36,92,75,44,29.68,29.53,4,1,6,0.00
2013-2-13,68,48,40,42,33,28,83,59,30,29.83,29.65,2,0,3,0.00
2013-2-14,71,50,40,37,31,29,67,50,27,30.01,29.83,2,0,3,0.00
2013-2-15,69,48,38,40,32,28,70,54,30,30.04,29.95,2,0,3,0.00
2013-2-16,72,51,41,39,34,30,72,56,28,30.06,29.98,2,0,3,0.00
2013-2-17,67,47,41,40,34,30,73,61,36,30.06,29.98,5,0,6,0.00
2013-2-18,64,47,40,42,35,31,78,63,38,30.01,29.95,2,0,2,0.00
2013-2-19,71,48,38,37,30,24,69,51,24,30.04,29.95,3,0,3,0.00
2013-2-20,66,47,37,36,31,26,68,54,34,30.01,29.89,4,0,4,0.00
2013-2-21,72,51,39,42,35,30,74,56,27,29.92,29.65,6,1,7,0.00
2013-2-22,59,52,48,50,45,42,87,78,59,29.68,29.42,10,3,11,0.00
2013-2-23,56,50,43,54,44,36,97,80,58,29.62,29.39,14,2,17,0.00
2013-2-24,54,46,40,37,32,26,71,57,37,29.95,29.62,7,2,9,0.00
2013-2-25,50,43,41,41,35,30,84,74,64,30.04,29.92,6,1,6,0.00
2013-3-4,49,49,48,39,38,38,68,68,68,30.21,30.18,2,1,3,73.66
2013-3-5,58,52,45,43,37,30,76,58,36,30.21,29.95,5,0,6,0.00
2013-3-6,62,56,53,56,46,34,98,71,39,29.95,29.68,13,3,19,0.00
2013-3-7,64,58,41,59,55,32,97,89,38,29.97,29.71,6,2,8,0.00
2013-3-8,60,58,56,55,54,51,94,87,77,29.80,29.65,8,3,11,0.00
2013-3-9,72,60,54,56,51,41,96,75,36,29.80,29.68,7,2,10,0.00
2013-3-10,70,58,41,55,49,32,94,74,38,29.97,29.53,10,2,11,0.00
2013-3-11,68,57,53,53,48,41,93,73,46,29.62,29.53,6,1,8,0.00
2013-3-12,61,52,48,51,46,42,86,79,64,29.59,29.47,6,1,7,0.00
2013-3-13,56,50,46,49,46,43,92,86,73,29.53,29.27,7,1,8,0.00
2013-3-14,65,51,45,48,38,30,94,65,36,29.27,29.12,4,1,6,0.00
2013-3-15,63,48,43,34,27,20,56,43,32,29.86,29.27,4,0,4,0.00
2013-3-16,66,47,38,35,25,20,55,42,26,30.12,29.86,5,1,6,0.00
2013-3-17,53,47,41,35,32,27,62,54,38,30.09,29.89,10,2,12,0.00
2013-3-18,58,56,41,55,48,32,95,77,38,29.68,29.47,15,4,18,73.66
2013-3-19,66,57,50,44,41,38,74,57,42,29.83,29.68,6,2,8,0.00
2013-3-20,58,52,46,49,42,37,92,70,46,29.80,29.65,7,1,10,0.00
2013-3-21,69,56,48,50,40,29,93,59,28,29.98,29.68,5,1,6,0.00
2013-3-22,76,55,43,45,39,31,78,59,22,29.98,29.86,4,0,4,0.00
2013-3-23,66,54,41,48,43,32,82,69,38,29.97,29.83,7,1,7,0.00
2013-3-24,74,65,60,46,42,34,59,44,24,29.97,29.44,9,3,14,0.00
2013-3-25,59,58,56,51,50,48,81,74,68,29.33,29.30,3,0,4,0.00
2013-3-30,62,60,41,53,52,32,75,72,38,29.97,29.62,10,8,10,0.00
2013-4-3,54,53,41,49,47,32,85,79,38,29.97,29.62,0,0,1,73.66
2013-4-12,71,65,41,55,51,32,86,62,38,30.04,29.95,12,5,15,73.66
2013-4-13,82,65,56,56,51,42,90,67,30,30.27,30.04,8,1,8,0.00
2013-4-14,82,64,53,53,48,42,81,60,26,30.36,30.24,4,0,4,0.00
2013-4-19,82,73,60,59,50,41,81,47,33,30.04,29.95,6,1,6,73.66
2013-4-27,62,61,41,59,58,32,91,87,38,29.97,29.77,9,5,14,73.66
2013-4-28,61,61,61,58,58,58,90,90,90,29.86,29.86,3,3,4,0.00
2013-4-29,70,67,41,42,41,32,38,36,34,30.01,29.97,1,0,0,73.66
2013-4-30,87,74,68,50,47,42,50,38,22,30.09,29.98,7,2,9,0.00
2013-5-1,81,70,65,56,52,48,64,53,34,30.04,30.01,3,0,4,0.00
2013-5-5,67,66,41,60,58,32,78,75,38,30.04,30.01,0,0,0,73.66
2013-5-11,41,41,41,32,32,32,38,38,38,29.92,29.92,4,3,4,0.00
2013-5-12,66,61,41,55,51,32,73,66,38,29.97,29.86,2,0,2,73.66
2013-5-13,63,60,57,55,53,51,82,77,70,29.95,29.89,2,0,3,0.00
2013-5-26,65,61,56,48,44,39,74,54,39,30.04,29.92,4,2,6,73.66
2013-5-27,70,62,54,52,46,34,77,58,30,30.04,29.95,7,2,9,0.00
2013-6-8,83,78,41,56,53,32,48,42,37,30.01,29.95,6,1,6,73.66
2013-6-10,70,68,68,56,52,48,66,55,45,29.97,29.89,2,0,4,73.66
2013-6-11,83,70,62,58,55,50,81,59,36,29.98,29.89,6,1,6,0.00
2013-6-12,93,75,64,58,51,41,80,49,20,30.01,29.95,4,1,6,0.00
2013-6-13,81,75,41,52,49,32,50,40,30,30.04,29.97,2,0,2,73.66
2013-6-14,89,76,68,58,50,46,61,41,28,30.06,29.98,5,1,6,0.00
2013-6-15,86,76,66,62,59,55,78,58,37,30.06,30.01,6,1,6,0.00
2013-7-1,70,66,41,51,48,32,52,49,38,30.09,29.97,1,0,1,73.66
2013-7-6,90,82,74,53,52,49,45,35,26,30.09,29.97,2,0,3,73.66
2013-7-24,91,90,89,64,60,56,44,38,31,30.01,29.98,5,2,6,73.66
2013-7-29,86,82,41,76,73,32,87,76,38,30.04,29.97,6,2,9,1.01
2013-7-30,95,83,75,76,60,51,87,50,28,30.04,29.92,6,1,6,0.00
2013-7-31,97,82,74,65,55,46,60,40,20,29.95,29.89,7,1,10,0.00
2013-8-1,95,83,74,62,52,46,53,35,20,30.01,29.95,4,1,9,0.00
2013-8-10,72,66,72,58,46,-100,63,58,63,29.83,29.83,0,0,0,0.00
2013-8-20,75,71,41,56,53,32,51,49,38,29.97,29.92,1,0,2,73.66
2013-8-29,69,68,41,62,60,32,77,75,38,30.04,29.97,1,0,0,0.00
2013-9-1,79,74,41,60,57,32,62,54,38,30.06,29.97,1,0,1,73.66
2013-9-2,93,77,67,62,57,46,73,54,22,30.15,30.06,6,0,7,0.00
2013-9-3,92,78,69,63,59,55,71,55,32,30.18,30.12,5,0,6,0.00
2013-9-4,73,71,70,62,62,61,73,72,70,30.18,30.18,2,0,2,0.00
2013-9-5,96,82,41,64,56,32,67,43,18,30.06,29.95,7,1,10,73.66
2013-9-6,96,80,70,64,59,49,70,52,22,29.98,29.89,7,0,9,0.00
2013-9-7,96,80,70,66,59,52,73,53,25,30.06,29.95,16,0,8,0.00
2013-9-20,91,81,41,60,55,32,77,45,27,29.97,29.89,2,0,19,73.66
2013-10-18,87,72,41,58,53,32,79,55,28,30.12,29.97,3,0,5,73.66
2013-10-19,83,68,61,60,56,46,84,68,31,30.27,30.09,6,1,6,0.00
2013-10-20,65,61,59,56,53,51,76,74,72,30.27,30.24,1,0,1,0.00